Back to catalog

STARLINK-30519

AliveCommunicationsVLEO
NORAD 57985·PAYLOAD·🇺🇸 United States

Launched Sep 30, 2023 from Cape Canaveral Space Force Station

Loading…

Next Passes (next 24 hours)

TLE

FreshSource: CelesTrak SupGP

Epoch: Sep 14, 2026, 14:00 UTC

1 57985C 23151X   26257.58381944  .00014993  00000+0  54317-3 0  2575
2 57985  43.0036   4.0995 0001464 271.0396 320.9690 15.27563369    19

Track STARLINK-30519 in real time with AllMySat

Download on the App Store